Location: Mountain_View
(35.6670°N, 81.4000°W)
Time: 13:08:34
(UTC-04:00)

Amateur Radio Satellites - All Passes

Search period start: 31 October 2014 12:38
Search period end: 01 November 2014 12:38
Location: Mountain_View, 35.6670°N, 81.4000°W

Satellite Date Start Highest point End Downlink Frequencies (MHz)
Time Altitude Azimuth
Oscar 19 31 Oct 12:45:01 12:46:06 11° 62° (ENE) 12:47:11 437.125 CW, 437.150 USB
JAS-1B 31 Oct 12:45:43 12:47:36 12° 60° (ENE) 12:49:29 435.800 - 435.900 CW/SSB
Sapphire 31 Oct 12:55:20 13:00:44 67° 247° (WSW) 13:06:05 437.095 MHz 1200 baud AX-25 AFSK
UOSAT-12 31 Oct 12:55:38 12:59:56 41° 114° (ESE) 13:04:20 437.025 FM, 437.400 FM
PCSat 31 Oct 13:17:20 13:22:19 38° 250° (WSW) 13:27:15 145.825 MHz
Oscar 16 31 Oct 13:28:11 13:32:40 31° 69° (ENE) 13:37:09 437.025 USB, Beacon 2401.1428
Uribyol 2 31 Oct 14:01:12 14:05:32 27° 68° (ENE) 14:09:52 436.500 FM
AO-Echo 31 Oct 14:03:34 14:08:00 33° 70° (ENE) 14:12:34 ?
ITAMSAT 1 31 Oct 14:08:57 14:13:27 30° 69° (ENE) 14:17:57 435.822 SSB
Oscar 19 31 Oct 14:19:33 14:24:42 82° 257° (WSW) 14:29:51 437.125 CW, 437.150 USB
JAS-1B 31 Oct 14:31:42 14:37:33 76° 257° (WSW) 14:43:15 435.800 - 435.900 CW/SSB
UOSAT-12 31 Oct 14:36:40 14:40:14 21° 311° (NW) 14:43:51 437.025 FM, 437.400 FM
KITSAT 1 31 Oct 14:40:32 14:41:25 10° 331° (NNW) 14:42:18 435.175 FM
AO-27 31 Oct 14:55:42 15:00:55 89° 76° (ENE) 15:06:11 436.795 MHz FM
Oscar 16 31 Oct 15:07:39 15:11:57 27° 264° (W) 15:16:17 437.025 USB, Beacon 2401.1428
Gurwin Techsat 1B 31 Oct 15:11:09 15:16:23 64° 74° (ENE) 15:21:38 435.225 FM
Saudisat 1A 31 Oct 15:12:51 15:17:06 44° 56° (NE) 15:21:19 436.775 MHz
TMSAT-1 31 Oct 15:17:38 15:22:46 53° 73° (ENE) 15:27:55 436.925 FM
Uribyol 2 31 Oct 15:40:13 15:44:50 32° 263° (W) 15:49:29 436.500 FM
AO-Echo 31 Oct 15:42:49 15:46:46 24° 265° (W) 15:50:50 ?
ITAMSAT 1 31 Oct 15:48:24 15:52:50 28° 263° (W) 15:57:20 435.822 SSB
AO-7 31 Oct 15:55:55 16:03:26 41° 64° (ENE) 16:10:58 29.400 - 29.500 MHz
Uosat F 31 Oct 15:56:36 15:59:43 17° 65° (ENE) 16:02:50 435.120 FM
JAS-2 31 Oct 16:52:51 16:57:25 21° 61° (ENE) 17:02:22 435.800 - 435.900 CW/SSB, 435.910 FM
Saudisat 1A 31 Oct 16:53:37 16:56:16 16° 251° (WSW) 16:58:55 436.775 MHz
Gurwin Techsat 1B 31 Oct 16:54:15 16:56:44 13° 268° (W) 16:59:12 435.225 FM
TMSAT-1 31 Oct 16:59:45 17:02:57 16° 267° (W) 17:06:10 436.925 FM
ISS 31 Oct 17:09:47 17:12:51 32° 35° (NE) 17:15:53 145.800 FM
Uosat F 31 Oct 17:33:10 17:38:02 51° 260° (W) 17:42:57 435.120 FM
AO-7 31 Oct 17:48:28 17:56:06 41° 260° (W) 18:03:48 29.400 - 29.500 MHz
OPAL 31 Oct 18:05:54 18:10:07 28° 99° (E) 18:14:18 ?
JAS-2 31 Oct 18:35:39 18:41:42 62° 260° (W) 18:48:37 435.800 - 435.900 CW/SSB, 435.910 FM
KITSAT 1 31 Oct 18:38:33 18:42:25 14° 35° (NE) 18:46:16 435.175 FM
Hamsat 31 Oct 18:39:25 18:43:35 72° 259° (WSW) 18:47:46 145.90 MHz
ISS 31 Oct 18:46:48 18:49:23 21° 230° (SW) 18:51:57 145.800 FM
SO-67 31 Oct 19:23:01 19:26:10 35° 74° (ENE) 19:29:19 435.3500 MHz FM
RS-15 31 Oct 19:41:44 19:47:50 17° 99° (E) 19:53:52 29.354 - 29.394 USB, Beacon 29.352 USB
OPAL 31 Oct 19:44:42 19:48:54 29° 293° (WNW) 19:53:06 ?
STRAND 1 31 Oct 20:01:58 20:07:02 56° 101° (E) 20:12:03 ?
HO-68 31 Oct 20:04:58 20:09:40 19° 59° (ENE) 20:14:21 435.675 MHz FM
AO-40 31 Oct 20:20:00 22:21:13 19° 108° (ESE) 23:26:54 Beacon 2401.320
KITSAT 1 31 Oct 20:31:43 20:39:41 59° 58° (ENE) 20:47:36 435.175 FM
SO-50 31 Oct 20:45:17 20:50:07 65° 59° (ENE) 20:54:58 436.795 FM
Oscar 10/S400 31 Oct 20:55:00 21:32:28 59° 202° (SSW) 07:32:21 145.825 - 145.975 CW/USB, Beacon 145.810 USB
Oscar 11 31 Oct 21:23:23 21:25:59 16° 67° (ENE) 21:28:36 145.825 FM, Beacon 2401.500 USB
UOSAT-12 31 Oct 21:28:39 21:31:56 18° 48° (NE) 21:35:10 437.025 FM, 437.400 FM
FUNcube-1 31 Oct 21:42:25 21:43:37 11° 65° (ENE) 21:44:50 145.950 - 145.970 MHz USB
STRAND 1 31 Oct 21:42:42 21:45:43 16° 296° (WNW) 21:48:43 ?
RS-15 31 Oct 21:47:26 21:58:29 86° 117° (ESE) 22:09:27 29.354 - 29.394 USB, Beacon 29.352 USB
MaSat-1 31 Oct 21:47:38 21:50:42 21° 108° (ESE) 21:53:34 437.345 MHz
HO-68 31 Oct 21:49:24 21:56:33 76° 256° (WSW) 22:03:46 435.675 MHz FM
UKube-1 31 Oct 22:22:40 22:27:01 87° 76° (ENE) 22:31:24 145.840 MHz, 145.915 MHz
SO-50 31 Oct 22:28:00 22:30:07 13° 253° (WSW) 22:32:14 436.795 FM
KITSAT 1 31 Oct 22:28:03 22:34:31 27° 255° (WSW) 22:40:58 435.175 FM
ZACube-1 31 Oct 22:32:26 22:36:42 41° 73° (ENE) 22:40:54 437.345 MHz
Oscar 11 31 Oct 22:57:48 23:01:50 38° 262° (W) 23:05:52 145.825 FM, Beacon 2401.500 USB
UOSAT-12 31 Oct 23:07:49 23:12:21 50° 245° (WSW) 23:16:47 437.025 FM, 437.400 FM
FUNcube-1 31 Oct 23:14:57 23:19:27 63° 259° (W) 23:23:53 145.950 - 145.970 MHz USB
MaSat-1 31 Oct 23:22:52 23:25:58 22° 298° (WNW) 23:28:51 437.345 MHz
RS-15 01 Nov 00:03:21 00:12:14 28° 321° (NW) 00:21:12 29.354 - 29.394 USB, Beacon 29.352 USB
ZACube-1 01 Nov 00:10:30 00:13:12 16° 267° (W) 00:15:53 437.345 MHz
Oscar 16 01 Nov 01:44:19 01:46:43 13° 92° (E) 01:49:07 437.025 USB, Beacon 2401.1428
Sapphire 01 Nov 01:52:02 01:56:19 24° 107° (ESE) 02:00:36 437.095 MHz 1200 baud AX-25 AFSK
PCSat 01 Nov 02:12:42 02:17:45 42° 110° (ESE) 02:22:51 145.825 MHz
AO-Echo 01 Nov 02:15:02 02:17:54 15° 91° (E) 02:20:44 ?
JAS-1B 01 Nov 02:16:34 02:23:29 38° 99° (E) 02:31:30 435.800 - 435.900 CW/SSB
Uribyol 2 01 Nov 02:19:00 02:20:33 11° 91° (E) 02:22:06 436.500 FM
ITAMSAT 1 01 Nov 02:26:22 02:28:44 13° 92° (E) 02:31:05 435.822 SSB
RS-15 01 Nov 02:26:23 02:30:18 12° 357° (N) 02:34:16 29.354 - 29.394 USB, Beacon 29.352 USB
Oscar 19 01 Nov 02:34:18 02:39:11 44° 99° (E) 02:44:03 437.125 CW, 437.150 USB
PANSAT 01 Nov 03:09:16 03:09:29 10° 158° (SSE) 03:09:42 not established
AO-27 01 Nov 03:12:01 03:16:56 41° 99° (E) 03:21:48 436.795 MHz FM
Oscar 16 01 Nov 03:21:22 03:26:25 60° 286° (WNW) 03:31:26 437.025 USB, Beacon 2401.1428
Gurwin Techsat 1B 01 Nov 03:30:45 03:35:29 32° 97° (E) 03:40:11 435.225 FM
Sapphire 01 Nov 03:34:25 03:39:28 39° 302° (WNW) 03:44:33 437.095 MHz 1200 baud AX-25 AFSK
TMSAT-1 01 Nov 03:36:58 03:41:24 27° 96° (E) 03:45:49 436.925 FM
AO-Echo 01 Nov 03:51:46 03:57:00 59° 286° (WNW) 04:02:08 ?
Uribyol 2 01 Nov 03:55:18 04:00:28 71° 285° (WNW) 04:05:36 436.500 FM
PCSat 01 Nov 03:56:56 04:01:18 25° 307° (NW) 04:05:42 145.825 MHz
AO-7 01 Nov 04:03:25 04:07:00 13° 91° (E) 04:10:33 29.400 - 29.500 MHz
ITAMSAT 1 01 Nov 04:03:26 04:08:36 63° 286° (WNW) 04:13:42 435.822 SSB
JAS-1B 01 Nov 04:07:12 04:13:56 41° 290° (WNW) 04:21:49 435.800 - 435.900 CW/SSB
Oscar 19 01 Nov 04:14:36 04:18:09 19° 294° (WNW) 04:21:43 437.125 CW, 437.150 USB
RS-15 01 Nov 04:40:43 04:49:00 23° 34° (NE) 04:57:28 29.354 - 29.394 USB, Beacon 29.352 USB
PANSAT 01 Nov 04:45:58 04:49:01 23° 170° (S) 04:52:05 not established
AO-27 01 Nov 04:52:14 04:56:08 22° 294° (WNW) 05:00:01 436.795 MHz FM
Gurwin Techsat 1B 01 Nov 05:10:51 05:15:17 28° 292° (WNW) 05:19:42 435.225 FM
TMSAT-1 01 Nov 05:16:36 05:21:17 32° 291° (WNW) 05:25:56 436.925 FM
Saudisat 1A 01 Nov 05:17:11 05:20:35 23° 111° (ESE) 05:24:01 436.775 MHz
OPAL 01 Nov 05:17:51 05:22:31 37° 69° (ENE) 05:27:09 ?
Uosat F 01 Nov 05:43:41 05:48:42 63° 102° (ESE) 05:53:40 435.120 FM
JAS-2 01 Nov 05:48:35 05:55:04 28° 93° (E) 06:01:14 435.800 - 435.900 CW/SSB, 435.910 FM
AO-7 01 Nov 05:52:23 06:00:45 83° 107° (ESE) 06:09:07 29.400 - 29.500 MHz
PANSAT 01 Nov 06:25:26 06:28:43 27° 183° (S) 06:32:01 not established
Hamsat 01 Nov 06:28:22 06:31:48 24° 96° (E) 06:35:15 145.90 MHz
RS-15 01 Nov 06:52:16 07:03:33 76° 59° (ENE) 07:15:18 29.354 - 29.394 USB, Beacon 29.352 USB
Saudisat 1A 01 Nov 06:56:04 06:59:58 31° 306° (NW) 07:03:54 436.775 MHz
OPAL 01 Nov 06:57:31 07:01:26 22° 263° (W) 07:05:21 ?
STRAND 1 01 Nov 07:14:55 07:19:57 60° 74° (ENE) 07:25:01 ?
Uosat F 01 Nov 07:24:25 07:26:54 14° 297° (WNW) 07:29:22 435.120 FM
JAS-2 01 Nov 07:32:40 07:40:19 57° 289° (WNW) 07:47:38 435.800 - 435.900 CW/SSB, 435.910 FM
MaSat-1 01 Nov 07:35:46 07:36:09 10° 57° (ENE) 07:36:31 437.345 MHz
AO-7 01 Nov 07:46:54 07:52:33 21° 304° (NW) 07:58:14 29.400 - 29.500 MHz
Hamsat 01 Nov 08:04:14 08:07:38 24° 289° (WNW) 08:11:02 145.90 MHz
PANSAT 01 Nov 08:05:47 08:08:22 17° 195° (SSW) 08:10:57 not established
SO-67 01 Nov 08:21:26 08:24:52 65° 100° (E) 08:28:16 435.3500 MHz FM
STRAND 1 01 Nov 08:56:59 08:59:28 14° 268° (W) 09:01:58 ?
RS-15 01 Nov 09:06:12 09:14:50 26° 257° (WSW) 09:23:48 29.354 - 29.394 USB, Beacon 29.352 USB
MaSat-1 01 Nov 09:10:16 09:11:22 12° 254° (WSW) 09:12:27 437.345 MHz
HO-68 01 Nov 09:21:24 09:27:01 24° 95° (E) 09:32:35 435.675 MHz FM
ISS 01 Nov 09:49:33 09:52:45 50° 134° (SE) 09:55:59 145.800 FM
UKube-1 01 Nov 10:14:47 10:17:49 18° 95° (E) 10:20:49 145.840 MHz, 145.915 MHz
Sapphire 01 Nov 10:43:45 10:46:06 13° 46° (NE) 10:48:27 437.095 MHz 1200 baud AX-25 AFSK
Oscar 11 01 Nov 10:48:01 10:52:10 45° 99° (E) 10:56:17 145.825 FM, Beacon 2401.500 USB
KITSAT 1 01 Nov 10:56:14 11:04:07 61° 112° (ESE) 11:12:02 435.175 FM
SO-50 01 Nov 10:57:38 11:01:47 40° 114° (ESE) 11:06:04 436.795 FM
PCSat 01 Nov 11:04:07 11:08:05 20° 51° (NE) 11:12:01 145.825 MHz
FUNcube-1 01 Nov 11:07:27 11:11:05 28° 97° (E) 11:14:40 145.950 - 145.970 MHz USB
HO-68 01 Nov 11:08:01 11:15:00 56° 291° (WNW) 11:21:57 435.675 MHz FM
ISS 01 Nov 11:27:16 11:29:38 18° 331° (NNW) 11:32:00 145.800 FM
UKube-1 01 Nov 11:50:08 11:54:02 33° 289° (WNW) 11:57:54 145.840 MHz, 145.915 MHz
ZACube-1 01 Nov 12:00:43 12:04:49 59° 285° (WNW) 12:08:53 437.345 MHz
Sapphire 01 Nov 12:24:50 12:30:18 88° 65° (ENE) 12:35:43 437.095 MHz 1200 baud AX-25 AFSK
Oscar 11 01 Nov 12:25:44 12:27:55 14° 294° (WNW) 12:30:06 145.825 FM, Beacon 2401.500 USB
